| time (UTC) | temp C | wind direction | speed KPH | gust KPH | rain 1hr cm | rain 24hr cm | rain mn cm | humidity % | barometer mb |
| 20260507192129 | 32 | 147 | 3.2 | 8.0 | 0.00 | 0.00 | 0.00 | 2 | 968.9 |
| 20260507191630 | 32 | 295 | 3.2 | 9.7 | 0.00 | 0.00 | 0.00 | 2 | 969.0 |
| 20260507191129 | 32 | 15 | 1.6 | 9.7 | 0.00 | 0.00 | 0.00 | 3 | 969.1 |
| 20260507190629 | 31 | 29 | 3.2 | 11.3 | 0.00 | 0.00 | 0.00 | 5 | 969.2 |
| 20260507190130 | 31 | 11 | 3.2 | 11.3 | 0.00 | 0.00 | 0.00 | 2 | 969.3 |
| 20260507185628 | 31 | 11 | 1.6 | 6.4 | 0.00 | 0.00 | 0.00 | 3 | 969.4 |
| 20260507184628 | 31 | 11 | 1.6 | 6.4 | 0.00 | 0.00 | 0.00 | 1 | 969.5 |
| 20260507183624 | 31 | 11 | 1.6 | 4.8 | 0.00 | 0.00 | 0.00 | 2 | 969.7 |
| 20260507183124 | 31 | 11 | 1.6 | 4.8 | 0.00 | 0.00 | 0.00 | 4 | 969.8 |
| 20260507182621 | 31 | 11 | 1.6 | 6.4 | 0.00 | 0.00 | 0.00 | 4 | 969.9 |
| 20260507182123 | 31 | 11 | 0.0 | 6.4 | 0.00 | 0.00 | 0.00 | 7 | 969.9 |
| 20260507181117 | 30 | 11 | 1.6 | 6.4 | 0.00 | 0.00 | 0.00 | 6 | 970.1 |
| 20260507180614 | 31 | 11 | 1.6 | 6.4 | 0.00 | 0.00 | 0.00 | 13 | 970.1 |
| 20260507180116 | 31 | 11 | 0.0 | 6.4 | 0.00 | 0.00 | 0.00 | 7 | 970.1 |
| 20260507175609 | 30 | 11 | 1.6 | 4.8 | 0.00 | 0.00 | 0.00 | 6 | 970.1 |
| 20260507174557 | 30 | 11 | 0.0 | 4.8 | 0.00 | 0.00 | 0.00 | 5 | 970.1 |
| 20260507174051 | 29 | 11 | 0.0 | 4.8 | 0.00 | 0.00 | 0.00 | 12 | 970.2 |
| 20260507173543 | 28 | 11 | 0.0 | 6.4 | 0.00 | 0.00 | 0.00 | 7 | 970.2 |
| 20260507173039 | 29 | 11 | 1.6 | 6.4 | 0.00 | 0.00 | 0.00 | 6 | 970.3 |
| 20260507172532 | 29 | 11 | 1.6 | 6.4 | 0.00 | 0.00 | 0.00 | 8 | 970.3 |
| 20260507172027 | 29 | 11 | 1.6 | 9.7 | 0.00 | 0.00 | 0.00 | 6 | 970.4 |
| 20260507171521 | 29 | 11 | 1.6 | 9.7 | 0.00 | 0.00 | 0.00 | 9 | 970.4 |
| 20260507171015 | 28 | 11 | 0.0 | 6.4 | 0.00 | 0.00 | 0.00 | 11 | 970.5 |
| 20260507170005 | 28 | 11 | 0.0 | 4.8 | 0.00 | 0.00 | 0.00 | 10 | 970.6 |
| 20260507164952 | 27 | 11 | 0.0 | 1.6 | 0.00 | 0.00 | 0.00 | 13 | 970.6 |
| 20260507163433 | 27 | 11 | 0.0 | 3.2 | 0.00 | 0.00 | 0.00 | 14 | 970.8 |
| 20260507162927 | 27 | 11 | 0.0 | 3.2 | 0.00 | 0.00 | 0.00 | 14 | 970.7 |
| 20260507162421 | 27 | 11 | 0.0 | 3.2 | 0.00 | 0.00 | 0.00 | 15 | 970.8 |
| 20260507161409 | 27 | 61 | 0.0 | 4.8 | 0.00 | 0.00 | 0.00 | 14 | 970.9 |
| 20260507160359 | 26 | 102 | 0.0 | 0.0 | 0.00 | 0.00 | 0.00 | 18 | 971.0 |
| 20260507155851 | 26 | 11 | 0.0 | 0.0 | 0.00 | 0.00 | 0.00 | 18 | 971.0 |
| 20260507155344 | 26 | 11 | 0.0 | 1.6 | 0.00 | 0.00 | 0.00 | 19 | 971.0 |
| 20260507154839 | 25 | 102 | 0.0 | 1.6 | 0.00 | 0.00 | 0.00 | 18 | 971.0 |
| 20260507154332 | 25 | 100 | 0.0 | 0.0 | 0.00 | 0.00 | 0.00 | 20 | 971.0 |
| 20260507153827 | 25 | 11 | 0.0 | 0.0 | 0.00 | 0.00 | 0.00 | 20 | 971.1 |
| 20260507152815 | 25 | 11 | 0.0 | 3.2 | 0.00 | 0.00 | 0.00 | 20 | 970.9 |
| 20260507151803 | 24 | 11 | 0.0 | 3.2 | 0.00 | 0.00 | 0.00 | 21 | 970.9 |
| 20260507151256 | 24 | 11 | 0.0 | 3.2 | 0.00 | 0.00 | 0.00 | 23 | 971.0 |
| 20260507150751 | 24 | 11 | 0.0 | 4.8 | 0.00 | 0.00 | 0.00 | 22 | 970.9 |
| 20260507145739 | 23 | 11 | 0.0 | 4.8 | 0.00 | 0.00 | 0.00 | 23 | 971.0 |
| 20260507145232 | 23 | 11 | 1.6 | 4.8 | 0.00 | 0.00 | 0.00 | 22 | 971.0 |
| 20260507144727 | 23 | 127 | 1.6 | 4.8 | 0.00 | 0.00 | 0.00 | 24 | 971.0 |
| 20260507144222 | 23 | 76 | 1.6 | 6.4 | 0.00 | 0.00 | 0.00 | 23 | 971.0 |
| 20260507143208 | 22 | 74 | 1.6 | 4.8 | 0.00 | 0.00 | 0.00 | 25 | 970.9 |
| 20260507142703 | 22 | 73 | 1.6 | 6.4 | 0.00 | 0.00 | 0.00 | 25 | 970.8 |
| 20260507142157 | 21 | 71 | 1.6 | 6.4 | 0.00 | 0.00 | 0.00 | 25 | 970.8 |
| 20260507141654 | 20 | 107 | 0.0 | 3.2 | 0.00 | 0.00 | 0.00 | 29 | 970.8 |
| 20260507140638 | 19 | 109 | 0.0 | 0.0 | 0.00 | 0.00 | 0.00 | 38 | 970.7 |
| 20260507140133 | 18 | 109 | 0.0 | 0.0 | 0.00 | 0.00 | 0.00 | 40 | 970.8 |
| 20260507135632 | 18 | 109 | 0.0 | 0.0 | 0.00 | 0.00 | 0.00 | 39 | 970.7 |
| 20260507135131 | 17 | 109 | 0.0 | 0.0 | 0.00 | 0.00 | 0.00 | 40 | 970.7 |
| 20260507134628 | 17 | 109 | 0.0 | 0.0 | 0.00 | 0.00 | 0.00 | 40 | 970.6 |
| 20260507134126 | 17 | 109 | 0.0 | 0.0 | 0.00 | 0.00 | 0.00 | 36 | 970.6 |
| 20260507133624 | 17 | 109 | 0.0 | 0.0 | 0.00 | 0.00 | 0.00 | 37 | 970.5 |
| 20260507133121 | 16 | 109 | 0.0 | 3.2 | 0.00 | 0.00 | 0.00 | 36 | 970.6 |
| 20260507132621 | 16 | 109 | 0.0 | 3.2 | 0.00 | 0.00 | 0.00 | 35 | 970.5 |
| 20260507131618 | 17 | 11 | 1.6 | 6.4 | 0.00 | 0.00 | 0.00 | 31 | 970.4 |
| 20260507131117 | 17 | 11 | 3.2 | 6.4 | 0.00 | 0.00 | 0.00 | 31 | 970.5 |
| 20260507130617 | 17 | 11 | 1.6 | 4.8 | 0.00 | 0.00 | 0.00 | 31 | 970.3 |
| 20260507130116 | 17 | 11 | 0.0 | 4.8 | 0.00 | 0.00 | 0.00 | 29 | 970.2 |
| 20260507125616 | 17 | 11 | 0.0 | 3.2 | 0.00 | 0.00 | 0.00 | 29 | 970.3 |
| 20260507125116 | 17 | 11 | 1.6 | 6.4 | 0.00 | 0.00 | 0.00 | 28 | 970.3 |
| 20260507124617 | 17 | 11 | 4.8 | 8.0 | 0.00 | 0.00 | 0.00 | 28 | 970.3 |
| 20260507124117 | 17 | 11 | 4.8 | 8.0 | 0.00 | 0.00 | 0.00 | 29 | 970.3 |
| 20260507123617 | 16 | 11 | 3.2 | 6.4 | 0.00 | 0.00 | 0.00 | 30 | 970.2 |
| 20260507123117 | 16 | 11 | 3.2 | 8.0 | 0.00 | 0.00 | 0.00 | 30 | 970.3 |
| 20260507122616 | 15 | 11 | 3.2 | 8.0 | 0.00 | 0.00 | 0.00 | 31 | 970.3 |
| 20260507122116 | 15 | 11 | 1.6 | 6.4 | 0.00 | 0.00 | 0.00 | 34 | 970.3 |
| 20260507121616 | 15 | 11 | 0.0 | 3.2 | 0.00 | 0.00 | 0.00 | 34 | 970.3 |
| 20260507120614 | 15 | 11 | 0.0 | 3.2 | 0.00 | 0.00 | 0.00 | 34 | 970.4 |
| 20260507115604 | 15 | 11 | 1.6 | 4.8 | 0.00 | 0.00 | 0.00 | 35 | 970.4 |
| 20260507115056 | 15 | 11 | 1.6 | 4.8 | 0.00 | 0.00 | 0.00 | 34 | 970.5 |
| 20260507114552 | 14 | 11 | 1.6 | 4.8 | 0.00 | 0.00 | 0.00 | 36 | 970.4 |
| 20260507114045 | 14 | 11 | 0.0 | 4.8 | 0.00 | 0.00 | 0.00 | 36 | 970.4 |
| 20260507113539 | 15 | 11 | 0.0 | 3.2 | 0.00 | 0.00 | 0.00 | 36 | 970.4 |
| 20260507113034 | 15 | 11 | 0.0 | 3.2 | 0.00 | 0.00 | 0.00 | 36 | 970.3 |
| 20260507112528 | 15 | 11 | 0.0 | 3.2 | 0.00 | 0.00 | 0.00 | 36 | 970.2 |
| 20260507112020 | 15 | 11 | 0.0 | 3.2 | 0.00 | 0.00 | 0.00 | 36 | 970.2 |
| 20260507111516 | 15 | 11 | 0.0 | 4.8 | 0.00 | 0.00 | 0.00 | 35 | 970.2 |
| 20260507111010 | 15 | 11 | 1.6 | 4.8 | 0.00 | 0.00 | 0.00 | 35 | 970.3 |
| 20260507110503 | 15 | 11 | 1.6 | 4.8 | 0.00 | 0.00 | 0.00 | 36 | 970.3 |
| 20260507105958 | 15 | 11 | 1.6 | 4.8 | 0.00 | 0.00 | 0.00 | 36 | 970.3 |
| 20260507104945 | 14 | 11 | 1.6 | 4.8 | 0.00 | 0.00 | 0.00 | 37 | 970.3 |
| 20260507104439 | 14 | 11 | 1.6 | 4.8 | 0.00 | 0.00 | 0.00 | 38 | 970.4 |
| 20260507103934 | 14 | 11 | 0.0 | 4.8 | 0.00 | 0.00 | 0.00 | 38 | 970.4 |
| 20260507103428 | 14 | 11 | 0.0 | 0.0 | 0.00 | 0.00 | 0.00 | 39 | 970.4 |
| 20260507102920 | 14 | 11 | 0.0 | 0.0 | 0.00 | 0.00 | 0.00 | 40 | 970.5 |
| 20260507102415 | 14 | 11 | 0.0 | 0.0 | 0.00 | 0.00 | 0.00 | 40 | 970.4 |
| 20260507101909 | 15 | 11 | 0.0 | 0.0 | 0.00 | 0.00 | 0.00 | 40 | 970.7 |
| 20260507101404 | 15 | 11 | 0.0 | 0.0 | 0.00 | 0.00 | 0.00 | 39 | 970.6 |
| 20260507100352 | 15 | 11 | 0.0 | 1.6 | 0.00 | 0.00 | 0.00 | 38 | 970.7 |
| 20260507095846 | 15 | 11 | 0.0 | 1.6 | 0.00 | 0.00 | 0.00 | 38 | 970.8 |
| 20260507093820 | 15 | 11 | 0.0 | 3.2 | 0.00 | 0.00 | 0.00 | 38 | 970.9 |
| 20260507093316 | 15 | 11 | 0.0 | 3.2 | 0.00 | 0.00 | 0.00 | 38 | 971.1 |
| 20260507092810 | 15 | 11 | 0.0 | 3.2 | 0.00 | 0.00 | 0.00 | 38 | 971.0 |
| 20260507092306 | 15 | 11 | 0.0 | 3.2 | 0.00 | 0.00 | 0.00 | 38 | 971.0 |
| 20260507091757 | 15 | 11 | 0.0 | 3.2 | 0.00 | 0.00 | 0.00 | 38 | 971.0 |
| 20260507091251 | 15 | 11 | 1.6 | 3.2 | 0.00 | 0.00 | 0.00 | 37 | 971.0 |
| 20260507090744 | 15 | 11 | 1.6 | 4.8 | 0.00 | 0.00 | 0.00 | 37 | 971.1 |
| 20260507090240 | 16 | 11 | 0.0 | 4.8 | 0.00 | 0.00 | 0.00 | 36 | 971.0 |
| 20260507085734 | 16 | 11 | 1.6 | 4.8 | 0.00 | 0.00 | 0.00 | 35 | 971.1 |
| 20260507085228 | 16 | 11 | 1.6 | 4.8 | 0.00 | 0.00 | 0.00 | 35 | 971.1 |
| 20260507084722 | 16 | 11 | 1.6 | 4.8 | 0.00 | 0.00 | 0.00 | 35 | 971.2 |
| 20260507084217 | 16 | 11 | 1.6 | 4.8 | 0.00 | 0.00 | 0.00 | 35 | 971.2 |
| 20260507083708 | 16 | 11 | 1.6 | 4.8 | 0.00 | 0.00 | 0.00 | 35 | 971.1 |
| 20260507083203 | 16 | 11 | 1.6 | 4.8 | 0.00 | 0.00 | 0.00 | 35 | 971.3 |
| 20260507082658 | 16 | 11 | 1.6 | 4.8 | 0.00 | 0.00 | 0.00 | 35 | 971.2 |
| 20260507082155 | 16 | 11 | 3.2 | 6.4 | 0.00 | 0.00 | 0.00 | 35 | 971.2 |
| 20260507081654 | 16 | 11 | 3.2 | 6.4 | 0.00 | 0.00 | 0.00 | 35 | 971.3 |
| 20260507081153 | 16 | 11 | 3.2 | 6.4 | 0.00 | 0.00 | 0.00 | 36 | 971.2 |
| 20260507080654 | 16 | 11 | 3.2 | 6.4 | 0.00 | 0.00 | 0.00 | 37 | 971.2 |
| 20260507080153 | 15 | 11 | 1.6 | 6.4 | 0.00 | 0.00 | 0.00 | 39 | 971.3 |
| 20260507075656 | 15 | 11 | 0.0 | 1.6 | 0.00 | 0.00 | 0.00 | 40 | 971.3 |
| 20260507074649 | 16 | 11 | 0.0 | 0.0 | 0.00 | 0.00 | 0.00 | 42 | 971.3 |
| 20260507074149 | 16 | 11 | 0.0 | 0.0 | 0.00 | 0.00 | 0.00 | 42 | 971.4 |
| 20260507073650 | 15 | 11 | 0.0 | 0.0 | 0.00 | 0.00 | 0.00 | 41 | 971.4 |
| 20260507073149 | 16 | 11 | 0.0 | 0.0 | 0.00 | 0.00 | 0.00 | 42 | 971.3 |
| 20260507072645 | 16 | 11 | 0.0 | 0.0 | 0.00 | 0.00 | 0.00 | 42 | 971.3 |
| 20260507072145 | 16 | 11 | 0.0 | 0.0 | 0.00 | 0.00 | 0.00 | 41 | 971.4 |
| 20260507071645 | 16 | 11 | 0.0 | 0.0 | 0.00 | 0.00 | 0.00 | 41 | 971.4 |
| 20260507071146 | 16 | 11 | 0.0 | 0.0 | 0.00 | 0.00 | 0.00 | 41 | 971.4 |
| 20260507070645 | 16 | 11 | 0.0 | 0.0 | 0.00 | 0.00 | 0.00 | 39 | 971.5 |
| 20260507070144 | 16 | 11 | 0.0 | 0.0 | 0.00 | 0.00 | 0.00 | 39 | 971.3 |
| 20260507065639 | 16 | 11 | 0.0 | 0.0 | 0.00 | 0.00 | 0.00 | 40 | 971.3 |
| 20260507064628 | 16 | 11 | 0.0 | 0.0 | 0.00 | 0.00 | 0.00 | 40 | 971.1 |
| 20260507064122 | 16 | 11 | 0.0 | 0.0 | 0.00 | 0.00 | 0.00 | 39 | 971.1 |
| 20260507063619 | 16 | 11 | 0.0 | 0.0 | 0.00 | 0.00 | 0.00 | 37 | 971.1 |
| 20260507062617 | 16 | 11 | 0.0 | 0.0 | 0.00 | 0.00 | 0.00 | 37 | 971.1 |
| 20260507061114 | 16 | 11 | 0.0 | 0.0 | 0.00 | 0.00 | 0.00 | 36 | 971.1 |
| 20260507060614 | 16 | 11 | 0.0 | 1.6 | 0.00 | 0.00 | 0.00 | 34 | 971.2 |
| 20260507060115 | 16 | 11 | 0.0 | 1.6 | 0.00 | 0.00 | 0.00 | 34 | 971.1 |
| 20260507055611 | 16 | 11 | 0.0 | 1.6 | 0.00 | 0.00 | 0.00 | 33 | 971.2 |
| 20260507054607 | 17 | 11 | 0.0 | 0.0 | 0.00 | 0.00 | 0.00 | 32 | 971.1 |
| 20260507053103 | 17 | 11 | 0.0 | 0.0 | 0.00 | 0.00 | 0.00 | 32 | 971.1 |
| 20260507052602 | 17 | 11 | 0.0 | 0.0 | 0.00 | 0.00 | 0.00 | 30 | 971.1 |
| 20260507052104 | 18 | 11 | 0.0 | 0.0 | 0.00 | 0.00 | 0.00 | 29 | 971.1 |
| 20260507051559 | 18 | 11 | 0.0 | 1.6 | 0.00 | 0.00 | 0.00 | 29 | 971.1 |
| 20260507051059 | 18 | 11 | 0.0 | 1.6 | 0.00 | 0.00 | 0.00 | 29 | 971.0 |
| 20260507050600 | 18 | 11 | 0.0 | 0.0 | 0.00 | 0.00 | 0.00 | 29 | 971.1 |
| 20260507050054 | 18 | 11 | 0.0 | 0.0 | 0.00 | 0.00 | 0.00 | 29 | 971.0 |
| 20260507045553 | 18 | 11 | 0.0 | 0.0 | 0.00 | 0.00 | 0.00 | 29 | 971.0 |
| 20260507045056 | 18 | 11 | 0.0 | 1.6 | 0.00 | 0.00 | 0.00 | 30 | 971.0 |
| 20260507044055 | 18 | 11 | 0.0 | 0.0 | 0.00 | 0.00 | 0.00 | 29 | 971.0 |
| 20260507043554 | 18 | 11 | 0.0 | 0.0 | 0.00 | 0.00 | 0.00 | 28 | 970.9 |
| 20260507043055 | 18 | 11 | 0.0 | 0.0 | 0.00 | 0.00 | 0.00 | 28 | 970.9 |
| 20260507042555 | 18 | 11 | 0.0 | 0.0 | 0.00 | 0.00 | 0.00 | 27 | 970.8 |
| 20260507042055 | 18 | 11 | 0.0 | 0.0 | 0.00 | 0.00 | 0.00 | 27 | 970.8 |
| 20260507041555 | 18 | 11 | 0.0 | 0.0 | 0.00 | 0.00 | 0.00 | 25 | 970.7 |
| 20260507041053 | 19 | 11 | 0.0 | 0.0 | 0.00 | 0.00 | 0.00 | 26 | 970.7 |
| 20260507040555 | 19 | 11 | 0.0 | 0.0 | 0.00 | 0.00 | 0.00 | 24 | 970.5 |
| 20260507040056 | 19 | 11 | 0.0 | 0.0 | 0.00 | 0.00 | 0.00 | 24 | 970.5 |
| 20260507035554 | 20 | 11 | 0.0 | 0.0 | 0.00 | 0.00 | 0.00 | 22 | 970.4 |
| 20260507035054 | 20 | 11 | 0.0 | 0.0 | 0.00 | 0.00 | 0.00 | 22 | 970.4 |
| 20260507034553 | 20 | 11 | 0.0 | 1.6 | 0.00 | 0.00 | 0.00 | 20 | 970.3 |
| 20260507034054 | 20 | 11 | 0.0 | 1.6 | 0.00 | 0.00 | 0.00 | 19 | 970.2 |
| 20260507032543 | 21 | 11 | 0.0 | 3.2 | 0.00 | 0.00 | 0.00 | 18 | 970.2 |
| 20260507032037 | 22 | 11 | 0.0 | 3.2 | 0.00 | 0.00 | 0.00 | 17 | 970.1 |
| 20260507031533 | 22 | 11 | 1.6 | 4.8 | 0.00 | 0.00 | 0.00 | 16 | 970.1 |
| 20260507031026 | 22 | 11 | 1.6 | 4.8 | 0.00 | 0.00 | 0.00 | 16 | 970.0 |
| 20260507030519 | 22 | 11 | 1.6 | 8.0 | 0.00 | 0.00 | 0.00 | 16 | 969.9 |
| 20260507030014 | 23 | 11 | 1.6 | 8.0 | 0.00 | 0.00 | 0.00 | 16 | 969.8 |
| 20260507025508 | 23 | 11 | 1.6 | 8.0 | 0.00 | 0.00 | 0.00 | 16 | 969.8 |
| 20260507025001 | 23 | 11 | 1.6 | 8.0 | 0.00 | 0.00 | 0.00 | 15 | 969.8 |
| 20260507024454 | 23 | 11 | 1.6 | 4.8 | 0.00 | 0.00 | 0.00 | 15 | 969.7 |
| 20260507023443 | 24 | 11 | 1.6 | 6.4 | 0.00 | 0.00 | 0.00 | 15 | 969.6 |
| 20260507022938 | 24 | 11 | 0.0 | 6.4 | 0.00 | 0.00 | 0.00 | 14 | 969.6 |
| 20260507022431 | 25 | 11 | 0.0 | 6.4 | 0.00 | 0.00 | 0.00 | 13 | 969.5 |
| 20260507021924 | 25 | 11 | 0.0 | 6.4 | 0.00 | 0.00 | 0.00 | 12 | 969.4 |
| 20260507021421 | 25 | 11 | 0.0 | 6.4 | 0.00 | 0.00 | 0.00 | 11 | 969.3 |
| 20260507020914 | 26 | 11 | 1.6 | 6.4 | 0.00 | 0.00 | 0.00 | 11 | 969.4 |
| 20260507020407 | 26 | 11 | 3.2 | 9.7 | 0.00 | 0.00 | 0.00 | 10 | 969.4 |
| 20260507015902 | 26 | 11 | 3.2 | 9.7 | 0.00 | 0.00 | 0.00 | 11 | 969.3 |
| 20260507015355 | 26 | 11 | 1.6 | 8.0 | 0.00 | 0.00 | 0.00 | 13 | 969.3 |
| 20260507014849 | 26 | 11 | 1.6 | 8.0 | 0.00 | 0.00 | 0.00 | 11 | 969.3 |
| 20260507014343 | 26 | 246 | 3.2 | 8.0 | 0.00 | 0.00 | 0.00 | 11 | 969.3 |
| 20260507013836 | 26 | 11 | 3.2 | 8.0 | 0.00 | 0.00 | 0.00 | 11 | 969.3 |
| 20260507013331 | 27 | 11 | 1.6 | 8.0 | 0.00 | 0.00 | 0.00 | 12 | 969.3 |
| 20260507012825 | 27 | 11 | 1.6 | 4.8 | 0.00 | 0.00 | 0.00 | 10 | 969.3 |
| 20260507012320 | 27 | 246 | 1.6 | 4.8 | 0.00 | 0.00 | 0.00 | 11 | 969.3 |
| 20260507011815 | 28 | 251 | 0.0 | 4.8 | 0.00 | 0.00 | 0.00 | 10 | 969.3 |
| 20260507011309 | 28 | 252 | 0.0 | 4.8 | 0.00 | 0.00 | 0.00 | 10 | 969.3 |
| 20260507010801 | 28 | 250 | 0.0 | 4.8 | 0.00 | 0.00 | 0.00 | 11 | 969.3 |
| 20260507010256 | 28 | 289 | 1.6 | 8.0 | 0.00 | 0.00 | 0.00 | 8 | 969.3 |
| 20260507005749 | 28 | 293 | 3.2 | 9.7 | 0.00 | 0.00 | 0.00 | 7 | 969.3 |
| 20260507005243 | 28 | 315 | 3.2 | 9.7 | 0.00 | 0.00 | 0.00 | 8 | 969.2 |
| 20260507004738 | 28 | 296 | 3.2 | 11.3 | 0.00 | 0.00 | 0.00 | 9 | 969.3 |
| 20260507004231 | 28 | 272 | 3.2 | 11.3 | 0.00 | 0.00 | 0.00 | 9 | 969.3 |
| 20260507003726 | 28 | 270 | 3.2 | 11.3 | 0.00 | 0.00 | 0.00 | 9 | 969.3 |
| 20260507003219 | 28 | 266 | 4.8 | 11.3 | 0.00 | 0.00 | 0.00 | 10 | 969.4 |
| 20260507002713 | 28 | 289 | 4.8 | 11.3 | 0.00 | 0.00 | 0.00 | 7 | 969.3 |
| 20260507002206 | 28 | 353 | 3.2 | 11.3 | 0.00 | 0.00 | 0.00 | 10 | 969.3 |
| 20260507001702 | 28 | 306 | 1.6 | 11.3 | 0.00 | 0.00 | 0.00 | 9 | 969.3 |
| 20260507001156 | 28 | 240 | 1.6 | 11.3 | 0.00 | 0.00 | 0.00 | 8 | 969.2 |
| 20260507000650 | 28 | 292 | 1.6 | 11.3 | 0.00 | 0.00 | 0.00 | 8 | 969.3 |
| 20260507000143 | 28 | 335 | 0.0 | 8.0 | 0.00 | 0.00 | 0.00 | 10 | 969.3 |
| 20260506235638 | 28 | 236 | 3.2 | 11.3 | 0.00 | 0.00 | 0.00 | 10 | 969.3 |
| 20260506235132 | 28 | 279 | 4.8 | 11.3 | 0.00 | 0.00 | 0.00 | 7 | 969.3 |
| 20260506234626 | 28 | 296 | 4.8 | 11.3 | 0.00 | 0.00 | 0.00 | 10 | 969.3 |
| 20260506234120 | 28 | 280 | 3.2 | 14.5 | 0.00 | 0.00 | 0.00 | 11 | 969.4 |
| 20260506233612 | 29 | 299 | 3.2 | 14.5 | 0.00 | 0.00 | 0.00 | 8 | 969.5 |
| 20260506233107 | 29 | 346 | 6.4 | 14.5 | 0.00 | 0.00 | 0.00 | 9 | 969.4 |
| 20260506232600 | 28 | 343 | 4.8 | 14.5 | 0.00 | 0.00 | 0.00 | 8 | 969.5 |
| 20260506232055 | 28 | 322 | 1.6 | 16.1 | 0.00 | 0.00 | 0.00 | 9 | 969.6 |
| 20260506231549 | 28 | 225 | 1.6 | 16.1 | 0.00 | 0.00 | 0.00 | 9 | 969.6 |
| 20260506231045 | 28 | 240 | 6.4 | 16.1 | 0.00 | 0.00 | 0.00 | 9 | 969.7 |
| 20260506230537 | 28 | 213 | 8.0 | 16.1 | 0.00 | 0.00 | 0.00 | 8 | 969.7 |
| 20260506230032 | 29 | 278 | 4.8 | 16.1 | 0.00 | 0.00 | 0.00 | 9 | 969.8 |
| 20260506225525 | 29 | 126 | 3.2 | 12.9 | 0.00 | 0.00 | 0.00 | 9 | 969.7 |
| 20260506224513 | 29 | 337 | 3.2 | 11.3 | 0.00 | 0.00 | 0.00 | 9 | 969.9 |
| 20260506224007 | 28 | 26 | 0.0 | 6.4 | 0.00 | 0.00 | 0.00 | 8 | 969.9 |
| 20260506222956 | 28 | 182 | 1.6 | 8.0 | 0.00 | 0.00 | 0.00 | 8 | 970.1 |
| 20260506221955 | 28 | 221 | 3.2 | 8.0 | 0.00 | 0.00 | 0.00 | 11 | 970.1 |
| 20260506221456 | 28 | 283 | 3.2 | 11.3 | 0.00 | 0.00 | 0.00 | 10 | 970.1 |
| 20260506220954 | 28 | 256 | 3.2 | 11.3 | 0.00 | 0.00 | 0.00 | 10 | 970.3 |
| 20260506220455 | 28 | 261 | 4.8 | 14.5 | 0.00 | 0.00 | 0.00 | 10 | 970.3 |
| 20260506215955 | 28 | 237 | 4.8 | 14.5 | 0.00 | 0.00 | 0.00 | 11 | 970.4 |
| 20260506215455 | 27 | 301 | 3.2 | 14.5 | 0.00 | 0.00 | 0.00 | 11 | 970.5 |
| 20260506214956 | 27 | 282 | 3.2 | 11.3 | 0.00 | 0.00 | 0.00 | 10 | 970.5 |
| 20260506214456 | 27 | 211 | 3.2 | 11.3 | 0.00 | 0.00 | 0.00 | 10 | 970.7 |
| 20260506213956 | 28 | 228 | 3.2 | 11.3 | 0.00 | 0.00 | 0.00 | 13 | 970.7 |
| 20260506213456 | 28 | 226 | 4.8 | 16.1 | 0.00 | 0.00 | 0.00 | 13 | 970.8 |
| 20260506212955 | 28 | 234 | 4.8 | 16.1 | 0.00 | 0.00 | 0.00 | 12 | 970.8 |
| 20260506212456 | 28 | 315 | 1.6 | 8.0 | 0.00 | 0.00 | 0.00 | 9 | 970.9 |
| 20260506211957 | 28 | 200 | 1.6 | 12.9 | 0.00 | 0.00 | 0.00 | 10 | 970.9 |
| 20260506211454 | 28 | 318 | 3.2 | 12.9 | 0.00 | 0.00 | 0.00 | 10 | 971.0 |
| 20260506210954 | 28 | 337 | 4.8 | 12.9 | 0.00 | 0.00 | 0.00 | 13 | 971.1 |
| 20260506210455 | 28 | 357 | 6.4 | 14.5 | 0.00 | 0.00 | 0.00 | 9 | 971.3 |
| 20260506205957 | 28 | 18 | 6.4 | 16.1 | 0.00 | 0.00 | 0.00 | 10 | 971.2 |
| 20260506205453 | 28 | 46 | 6.4 | 16.1 | 0.00 | 0.00 | 0.00 | 12 | 971.3 |
| 20260506204948 | 28 | 41 | 4.8 | 12.9 | 0.00 | 0.00 | 0.00 | 12 | 971.5 |
| 20260506204441 | 27 | 12 | 4.8 | 12.9 | 0.00 | 0.00 | 0.00 | 15 | 971.5 |
| 20260506203935 | 27 | 281 | 4.8 | 16.1 | 0.00 | 0.00 | 0.00 | 15 | 971.6 |
| 20260506203429 | 27 | 332 | 4.8 | 16.1 | 0.00 | 0.00 | 0.00 | 11 | 971.6 |
| 20260506202923 | 27 | 102 | 6.4 | 16.1 | 0.00 | 0.00 | 0.00 | 12 | 971.6 |
| 20260506202417 | 27 | 12 | 6.4 | 16.1 | 0.00 | 0.00 | 0.00 | 10 | 971.7 |
| 20260506201911 | 26 | 296 | 3.2 | 11.3 | 0.00 | 0.00 | 0.00 | 12 | 971.7 |
| 20260506201405 | 26 | 317 | 1.6 | 9.7 | 0.00 | 0.00 | 0.00 | 14 | 971.7 |
| 20260506200857 | 26 | 215 | 1.6 | 8.0 | 0.00 | 0.00 | 0.00 | 16 | 971.8 |
| 20260506200354 | 26 | 11 | 1.6 | 9.7 | 0.00 | 0.00 | 0.00 | 14 | 971.8 |
| 20260506195848 | 26 | 11 | 1.6 | 9.7 | 0.00 | 0.00 | 0.00 | 14 | 971.8 |
| 20260506195343 | 26 | 272 | 1.6 | 11.3 | 0.00 | 0.00 | 0.00 | 13 | 971.9 |
| 20260506194835 | 26 | 273 | 3.2 | 11.3 | 0.00 | 0.00 | 0.00 | 17 | 971.9 |
| 20260506194329 | 26 | 78 | 3.2 | 9.7 | 0.00 | 0.00 | 0.00 | 13 | 971.9 |
| 20260506193823 | 26 | 13 | 4.8 | 16.1 | 0.00 | 0.00 | 0.00 | 17 | 971.9 |
| 20260506193318 | 26 | 304 | 6.4 | 16.1 | 0.00 | 0.00 | 0.00 | 14 | 972.0 |